^^
Saratoga-Weather Station Historical Data
Daily Summary for March 16, 2020 Units:  Metric    English   Both
Daily Weekly Monthly Yearly Custom
  High: Low: Average:
Temperature: 30.1 °C 18.1 °C 21.6 °C
Dew Point: 19.6 °C 16.9 °C 17.9 °C
Humidity: 93% 48% 81%
Wind Speed: 9.7km/h 0km/h 1.3km/h
Wind Gust: 11.3km/h - -
Wind- - ESE
Pressure: 1010.8 hPa 1008.5 hPa -
Precipitation: 0.0 mm    
Historical Graphs
 
 
Tabular Data for March 16, 2020
Time Temperature Dew Point Pressure Wind Wind Speed Wind Gust Humidity Rainfall Rate (Hourly) solar
00:02 21.9 °C 17.5 °C 1010.8 hPa Calm   1.6 km/h 76% 0.0 mm 0 W/m2
00:07 21.8 °C 17.6 °C 1010.8 hPa Calm     77% 0.0 mm 0 W/m2
00:12 21.7 °C 17.5 °C 1010.8 hPa Calm     77% 0.0 mm 0 W/m2
00:17 21.7 °C 17.7 °C 1010.8 hPa SE 1.4 km/h 3.2 km/h 78% 0.0 mm 0 W/m2
00:22 21.6 °C 17.6 °C 1010.8 hPa SE 1.4 km/h 1.6 km/h 78% 0.0 mm 0 W/m2
00:27 21.6 °C 17.6 °C 1010.8 hPa Calm   1.6 km/h 78% 0.0 mm 0 W/m2
00:32 21.5 °C 17.7 °C 1010.8 hPa ENE 3.2 km/h 3.2 km/h 79% 0.0 mm 0 W/m2
00:37 21.6 °C 18 °C 1010.8 hPa Calm   1.6 km/h 80% 0.0 mm 0 W/m2
00:42 21.7 °C 17.9 °C 1010.8 hPa ENE 1.4 km/h 1.6 km/h 79% 0.0 mm 0 W/m2
00:47 21.7 °C 18.1 °C 1010.8 hPa NE 1.4 km/h 1.6 km/h 80% 0.0 mm 0 W/m2
00:52 21.7 °C 18.1 °C 1010.8 hPa ENE 1.4 km/h 1.6 km/h 80% 0.0 mm 0 W/m2
00:57 21.7 °C 17.9 °C 1010.8 hPa SSE 1.4 km/h 4.8 km/h 79% 0.0 mm 0 W/m2
01:02 21.6 °C 18 °C 1010.8 hPa SSE 1.4 km/h 1.6 km/h 80% 0.0 mm 0 W/m2
01:07 21.4 °C 17.8 °C 1010.5 hPa Calm   3.2 km/h 80% 0.0 mm 0 W/m2
01:12 21.3 °C 17.9 °C 1010.5 hPa Calm     81% 0.0 mm 0 W/m2
01:17 21.1 °C 17.7 °C 1010.5 hPa Calm     81% 0.0 mm 0 W/m2
01:22 21 °C 17.8 °C 1010.5 hPa Calm     82% 0.0 mm 0 W/m2
01:27 20.9 °C 17.9 °C 1010.5 hPa Calm   1.6 km/h 83% 0.0 mm 0 W/m2
01:32 20.8 °C 17.8 °C 1010.5 hPa SSE 1.4 km/h 1.6 km/h 83% 0.0 mm 0 W/m2
01:37 20.8 °C 17.8 °C 1010.5 hPa Calm   4.8 km/h 83% 0.0 mm 0 W/m2
01:42 21 °C 18 °C 1010.2 hPa NW 1.4 km/h 1.6 km/h 83% 0.0 mm 0 W/m2
01:47 21.2 °C 18 °C 1010.2 hPa Calm   4.8 km/h 82% 0.0 mm 0 W/m2
01:52 21.2 °C 18 °C 1010.2 hPa Calm   1.6 km/h 82% 0.0 mm 0 W/m2
01:57 21.2 °C 18 °C 1010.2 hPa Calm     82% 0.0 mm 0 W/m2
02:02 21 °C 17.8 °C 1010.2 hPa NW 1.4 km/h 1.6 km/h 82% 0.0 mm 0 W/m2
02:07 20.8 °C 17.8 °C 1010.2 hPa Calm     83% 0.0 mm 0 W/m2
02:12 20.7 °C 17.7 °C 1010.2 hPa Calm   3.2 km/h 83% 0.0 mm 0 W/m2
02:17 20.6 °C 17.8 °C 1010.2 hPa Calm     84% 0.0 mm 0 W/m2
02:22 20.4 °C 17.6 °C 1010.2 hPa Calm   1.6 km/h 84% 0.0 mm 0 W/m2
02:27 20.4 °C 17.8 °C 1010.2 hPa Calm     85% 0.0 mm 0 W/m2
02:32 20.3 °C 17.7 °C 1010.2 hPa Calm     85% 0.0 mm 0 W/m2
02:37 20.2 °C 17.6 °C 1010.2 hPa Calm     85% 0.0 mm 0 W/m2
02:42 20.1 °C 17.7 °C 1010.2 hPa Calm     86% 0.0 mm 0 W/m2
02:47 19.9 °C 17.5 °C 1010.2 hPa Calm     86% 0.0 mm 0 W/m2
02:52 19.8 °C 17.6 °C 1010.2 hPa Calm     87% 0.0 mm 0 W/m2
02:57 19.8 °C 17.6 °C 1010.2 hPa Calm   1.6 km/h 87% 0.0 mm 0 W/m2
03:03 19.7 °C 17.5 °C 1009.8 hPa Calm   1.6 km/h 87% 0.0 mm 0 W/m2
03:08 19.7 °C 17.5 °C 1009.8 hPa NW 1.4 km/h 3.2 km/h 87% 0.0 mm 0 W/m2
03:13 19.6 °C 17.4 °C 1009.8 hPa Calm     87% 0.0 mm 0 W/m2
03:18 19.4 °C 17.4 °C 1009.8 hPa Calm   3.2 km/h 88% 0.0 mm 0 W/m2
03:23 19.4 °C 17.4 °C 1010.2 hPa Calm     88% 0.0 mm 0 W/m2
03:28 19.3 °C 17.3 °C 1009.8 hPa Calm     88% 0.0 mm 0 W/m2
03:33 19.2 °C 17.3 °C 1010.2 hPa Calm     89% 0.0 mm 0 W/m2
03:38 19.1 °C 17.2 °C 1010.2 hPa Calm     89% 0.0 mm 0 W/m2
03:43 19 °C 17.1 °C 1010.2 hPa Calm     89% 0.0 mm 0 W/m2
03:48 18.9 °C 17.2 °C 1010.2 hPa Calm     90% 0.0 mm 0 W/m2
03:53 18.9 °C 17.2 °C 1010.2 hPa Calm     90% 0.0 mm 0 W/m2
03:58 18.8 °C 17.1 °C 1010.2 hPa Calm     90% 0.0 mm 0 W/m2
04:03 18.7 °C 17 °C 1009.8 hPa Calm     90% 0.0 mm 0 W/m2
04:08 18.7 °C 17.2 °C 1009.8 hPa Calm     91% 0.0 mm 0 W/m2
04:13 18.6 °C 17.1 °C 1009.8 hPa Calm     91% 0.0 mm 0 W/m2
04:18 18.6 °C 17.1 °C 1010.2 hPa Calm     91% 0.0 mm 0 W/m2
04:23 18.5 °C 17 °C 1009.8 hPa Calm     91% 0.0 mm 0 W/m2
04:28 18.4 °C 16.9 °C 1009.8 hPa Calm     91% 0.0 mm 0 W/m2
04:33 18.4 °C 17.1 °C 1009.8 hPa Calm     92% 0.0 mm 0 W/m2
04:38 18.4 °C 17.1 °C 1009.8 hPa Calm     92% 0.0 mm 0 W/m2
04:44 18.4 °C 17.1 °C 1009.8 hPa Calm     92% 0.0 mm 0 W/m2
04:49 18.4 °C 17.1 °C 1009.8 hPa Calm     92% 0.0 mm 0 W/m2
04:54 18.3 °C 17 °C 1009.8 hPa Calm     92% 0.0 mm 0 W/m2
04:59 18.3 °C 17 °C 1009.8 hPa Calm     92% 0.0 mm 0 W/m2
05:04 18.3 °C 17 °C 1009.8 hPa Calm     92% 0.0 mm 0 W/m2
05:09 18.3 °C 17 °C 1009.8 hPa Calm     92% 0.0 mm 0 W/m2
05:14 18.3 °C 17 °C 1009.8 hPa Calm     92% 0.0 mm 0 W/m2
05:19 18.3 °C 17 °C 1009.8 hPa Calm     92% 0.0 mm 0 W/m2
05:25 18.3 °C 17 °C 1009.8 hPa Calm     92% 0.0 mm 0 W/m2
05:30 18.2 °C 16.9 °C 1009.8 hPa Calm     92% 0.0 mm 0 W/m2
05:35 18.2 °C 16.9 °C 1009.5 hPa Calm     92% 0.0 mm 0 W/m2
05:40 18.2 °C 16.9 °C 1009.5 hPa Calm     92% 0.0 mm 0 W/m2
05:45 18.2 °C 17 °C 1009.5 hPa Calm     93% 0.0 mm 0 W/m2
05:50 18.2 °C 17 °C 1009.5 hPa Calm     93% 0.0 mm 0 W/m2
05:55 18.1 °C 16.9 °C 1009.5 hPa Calm     93% 0.0 mm 0 W/m2
06:00 18.1 °C 16.9 °C 1009.5 hPa Calm     93% 0.0 mm 0 W/m2
06:05 18.1 °C 16.9 °C 1009.5 hPa Calm     93% 0.0 mm 0 W/m2
06:10 18.2 °C 17 °C 1009.5 hPa Calm     93% 0.0 mm 0 W/m2
06:15 18.2 °C 17 °C 1009.5 hPa Calm     93% 0.0 mm 0 W/m2
06:20 18.2 °C 17 °C 1009.5 hPa Calm     93% 0.0 mm 0 W/m2
06:25 18.2 °C 17 °C 1009.5 hPa Calm     93% 0.0 mm 0 W/m2
06:30 18.3 °C 17.1 °C 1009.5 hPa Calm   1.6 km/h 93% 0.0 mm 0 W/m2
06:35 18.3 °C 17.1 °C 1009.8 hPa NW 1.4 km/h 1.6 km/h 93% 0.0 mm 5 W/m2
06:40 18.3 °C 17.1 °C 1009.8 hPa Calm   1.6 km/h 93% 0.0 mm 7 W/m2
06:45 18.3 °C 17 °C 1009.5 hPa Calm     92% 0.0 mm 9 W/m2
06:50 18.3 °C 17 °C 1009.5 hPa Calm     92% 0.0 mm 11 W/m2
06:55 18.3 °C 17 °C 1009.8 hPa Calm     92% 0.0 mm 12 W/m2
07:00 18.3 °C 17.1 °C 1009.8 hPa ENE 1.4 km/h 1.6 km/h 93% 0.0 mm 14 W/m2
07:05 18.3 °C 17 °C 1009.8 hPa Calm     92% 0.0 mm 14 W/m2
07:10 18.3 °C 17 °C 1009.8 hPa Calm   1.6 km/h 92% 0.0 mm 19 W/m2
07:15 18.4 °C 17.2 °C 1009.8 hPa Calm     93% 0.0 mm 21 W/m2
07:20 18.4 °C 17.2 °C 1009.5 hPa Calm     93% 0.0 mm 21 W/m2
07:25 18.4 °C 17.2 °C 1009.8 hPa Calm   1.6 km/h 93% 0.0 mm 21 W/m2
07:30 18.4 °C 17.2 °C 1009.5 hPa ENE 1.4 km/h 1.6 km/h 93% 0.0 mm 21 W/m2
07:35 18.5 °C 17.3 °C 1009.5 hPa Calm     93% 0.0 mm 21 W/m2
07:40 18.6 °C 17.3 °C 1009.5 hPa Calm     92% 0.0 mm 30 W/m2
07:45 18.6 °C 17.3 °C 1009.5 hPa Calm   1.6 km/h 92% 0.0 mm 33 W/m2
07:50 18.7 °C 17.4 °C 1009.5 hPa Calm     92% 0.0 mm 35 W/m2
07:55 18.8 °C 17.5 °C 1009.5 hPa Calm   1.6 km/h 92% 0.0 mm 62 W/m2
08:00 19 °C 17.7 °C 1009.8 hPa ENE 1.4 km/h 1.6 km/h 92% 0.0 mm 74 W/m2
08:05 19.2 °C 17.9 °C 1009.8 hPa Calm   1.6 km/h 92% 0.0 mm 49 W/m2
08:10 19.4 °C 17.9 °C 1009.8 hPa Calm   3.2 km/h 91% 0.0 mm 44 W/m2
08:15 19.6 °C 18.1 °C 1009.8 hPa Calm   1.6 km/h 91% 0.0 mm 46 W/m2
08:20 19.9 °C 18.2 °C 1009.8 hPa Calm     90% 0.0 mm 49 W/m2
08:25 20.2 °C 18.3 °C 1009.8 hPa Calm   3.2 km/h 89% 0.0 mm 56 W/m2
08:30 20.5 °C 18.4 °C 1009.8 hPa ENE 1.4 km/h 1.6 km/h 88% 0.0 mm 60 W/m2
08:35 20.8 °C 18.4 °C 1010.2 hPa Calm     86% 0.0 mm 63 W/m2
08:41 21.1 °C 18.5 °C 1010.2 hPa ENE 1.4 km/h 1.6 km/h 85% 0.0 mm 67 W/m2
08:46 21.2 °C 18.6 °C 1010.2 hPa ENE 1.4 km/h 3.2 km/h 85% 0.0 mm 70 W/m2
08:51 21.4 °C 18.6 °C 1010.2 hPa East 3.2 km/h 3.2 km/h 84% 0.0 mm 95 W/m2
08:56 21.7 °C 18.7 °C 1009.8 hPa SE 1.4 km/h 3.2 km/h 83% 0.0 mm 237 W/m2
09:01 21.8 °C 18.6 °C 1010.2 hPa NE 3.2 km/h 4.8 km/h 82% 0.0 mm 309 W/m2
09:06 22.1 °C 18.9 °C 1010.2 hPa Calm   3.2 km/h 82% 0.0 mm 294 W/m2
09:11 22.2 °C 18.8 °C 1009.8 hPa Calm   4.8 km/h 81% 0.0 mm 323 W/m2
09:16 22.4 °C 18.8 °C 1009.8 hPa NE 6.4 km/h 8 km/h 80% 0.0 mm 371 W/m2
09:21 22.6 °C 18.8 °C 1009.8 hPa NE 1.4 km/h 1.6 km/h 79% 0.0 mm 385 W/m2
09:26 22.7 °C 18.9 °C 1009.8 hPa ENE 4.7 km/h 8 km/h 79% 0.0 mm 378 W/m2
09:31 22.8 °C 19 °C 1009.8 hPa NNE 1.4 km/h 4.8 km/h 79% 0.0 mm 299 W/m2
09:36 22.9 °C 18.9 °C 1009.8 hPa East 3.2 km/h 8 km/h 78% 0.0 mm 206 W/m2
09:41 23.1 °C 19.1 °C 1009.8 hPa East 6.4 km/h 8 km/h 78% 0.0 mm 149 W/m2
09:46 23.2 °C 19.1 °C 1009.8 hPa Calm   1.6 km/h 78% 0.0 mm 369 W/m2
09:51 23.6 °C 19.1 °C 1009.8 hPa ENE 6.4 km/h 6.4 km/h 76% 0.0 mm 411 W/m2
09:56 23.6 °C 18.9 °C 1009.8 hPa North 3.2 km/h 6.4 km/h 75% 0.0 mm 380 W/m2
10:01 23.8 °C 19.1 °C 1009.8 hPa East 4.7 km/h 4.8 km/h 75% 0.0 mm 450 W/m2
10:06 24 °C 19.3 °C 1009.5 hPa Calm   1.6 km/h 75% 0.0 mm 429 W/m2
10:11 24.3 °C 19.4 °C 1009.5 hPa East 6.4 km/h 11.3 km/h 74% 0.0 mm 446 W/m2
10:16 24.3 °C 19.1 °C 1009.5 hPa NE 4.7 km/h 6.4 km/h 73% 0.0 mm 457 W/m2
10:21 24.6 °C 19.4 °C 1009.5 hPa ESE 3.2 km/h 4.8 km/h 73% 0.0 mm 494 W/m2
10:26 24.8 °C 19.4 °C 1009.5 hPa ENE 1.4 km/h 4.8 km/h 72% 0.0 mm 531 W/m2
10:31 25.1 °C 19.5 °C 1009.5 hPa East 6.4 km/h 11.3 km/h 71% 0.0 mm 538 W/m2
10:36 25.4 °C 19.5 °C 1009.1 hPa Calm   3.2 km/h 70% 0.0 mm 485 W/m2
10:41 25.7 °C 19.6 °C 1009.5 hPa East 3.2 km/h 6.4 km/h 69% 0.0 mm 570 W/m2
10:46 25.9 °C 19.5 °C 1009.5 hPa NW 1.4 km/h 6.4 km/h 68% 0.0 mm 571 W/m2
10:51 26.1 °C 19.5 °C 1009.1 hPa East 6.4 km/h 6.4 km/h 67% 0.0 mm 585 W/m2
10:56 26.1 °C 19.5 °C 1009.1 hPa ENE 1.4 km/h 8 km/h 67% 0.0 mm 592 W/m2
11:01 26.3 °C 19.4 °C 1009.1 hPa ESE 1.4 km/h 4.8 km/h 66% 0.0 mm 598 W/m2
11:06 26.6 °C 19.5 °C 1009.1 hPa ENE 3.2 km/h 4.8 km/h 65% 0.0 mm 598 W/m2
11:11 26.7 °C 19.3 °C 1009.1 hPa East 3.2 km/h 4.8 km/h 64% 0.0 mm 626 W/m2
11:16 26.8 °C 19.4 °C 1009.1 hPa SSE 3.2 km/h 6.4 km/h 64% 0.0 mm 638 W/m2
11:21 26.9 °C 19.5 °C 1009.1 hPa ENE 7.9 km/h 8 km/h 64% 0.0 mm 647 W/m2
11:26 27 °C 19.4 °C 1009.1 hPa NE 3.2 km/h 4.8 km/h 63% 0.0 mm 659 W/m2
11:31 27.1 °C 19.2 °C 1009.1 hPa East 3.2 km/h 3.2 km/h 62% 0.0 mm 659 W/m2
11:36 27.2 °C 19 °C 1009.1 hPa NNE 4.7 km/h 11.3 km/h 61% 0.0 mm 670 W/m2
11:41 27.3 °C 18.9 °C 1009.1 hPa SSE 1.4 km/h 3.2 km/h 60% 0.0 mm 679 W/m2
11:46 27.4 °C 18.7 °C 1009.1 hPa SE 1.4 km/h 3.2 km/h 59% 0.0 mm 700 W/m2
11:51 27.7 °C 19 °C 1009.1 hPa North 1.4 km/h 3.2 km/h 59% 0.0 mm 508 W/m2
11:56 27.8 °C 18.8 °C 1009.1 hPa North 3.2 km/h 9.7 km/h 58% 0.0 mm 788 W/m2
12:01 27.8 °C 18.8 °C 1009.1 hPa WNW 4.7 km/h 4.8 km/h 58% 0.0 mm 868 W/m2
12:06 27.8 °C 19.1 °C 1009.1 hPa Calm     59% 0.0 mm 339 W/m2
12:11 28.1 °C 18.8 °C 1009.1 hPa ENE 4.7 km/h 4.8 km/h 57% 0.0 mm 367 W/m2
12:16 28.3 °C 19 °C 1009.1 hPa Calm   3.2 km/h 57% 0.0 mm 684 W/m2
12:21 28.6 °C 19 °C 1009.1 hPa ESE 9.7 km/h 9.7 km/h 56% 0.0 mm 779 W/m2
12:26 29 °C 18.7 °C 1009.1 hPa SE 1.4 km/h 11.3 km/h 54% 0.0 mm 747 W/m2
12:31 29 °C 18.5 °C 1008.8 hPa Calm   3.2 km/h 53% 0.0 mm 782 W/m2
12:36 29.1 °C 18.5 °C 1008.8 hPa East 7.9 km/h 8 km/h 53% 0.0 mm 817 W/m2
12:41 29.4 °C 18.2 °C 1008.8 hPa East 4.7 km/h 11.3 km/h 51% 0.0 mm 766 W/m2
12:47 29.7 °C 18.2 °C 1008.8 hPa NE 6.4 km/h 6.4 km/h 50% 0.0 mm 826 W/m2
12:52 29.6 °C 17.8 °C 1008.8 hPa ENE 7.9 km/h 8 km/h 49% 0.0 mm 909 W/m2
12:57 29.8 °C 17.9 °C 1008.5 hPa ENE 4.7 km/h 4.8 km/h 49% 0.0 mm 925 W/m2
13:02 30.1 °C 17.9 °C 1008.5 hPa SSW 1.4 km/h 6.4 km/h 48% 0.0 mm 914 W/m2
Juneau County Weather
Compliments of Weather Underground - 2 mb